INMARSAT 4-F3

Last updated on Tue Dec 16 2025 00:02:48 GMT+0000 (Coordinated Universal Time)

1 33278U 08039A 25349.25301218 -.00000123 00000+0 00000+0 0 9993 2 33278 4.1368 30.8221 0003004 236.2834 170.1415 1.00272170 44702
UTC large
Height (km)
Speed (km/s)
/
Latitude / Longitude
Inclination (degrees)
Orbital Period (minutes)
Azimuth
Elevation
Range (km)
Doppler Factor

Next 0 passes for location: London (51.5072 / 0.1276)

Sorry there are no passes over London.